Showing default

KSM1-A, 46912

Orbit data source: Space-Track

KSM1-A, 46912 is a payload satellite owned by Kleos Space (LU) in LEO that was launched on Sat, 07 Nov 2020 UTC via a PSLV-DL launch vehicle from the Sirharikota (SRI). Payloads include a variety of satellites, spacecraft, and rockets equipped with specific instruments for various scientific and technological missions. These include communications satellites like Starlink; space stations such as the ISS; scientific satellites like the Hubble; Earth observation satellites from companies like Planet Labs, Umbra, and HawkEye 360; GPS; miniature CubeSats for education and research; and military/defense satellites.

Loading next visibility...
KSM1-A details
Identifier
46912, 2020-081H
Orbit
LEO
Last TLE update10 hours ago
Origin
Flag of LUKleos Space (LU / LUXE)
ManufacturerGOMSpace
MissionOperational Commercial Sigint
Bus & MotorCUBESAT 6U, Unknown motor
Mass~10 kg wet, ~10 kg dry
Launch date (UTC)
2020-11-07 (4 years ago)
Launch vehicle
PSLV-DL
Launch site
Sirharikota (SRI)
Object type
Payload
Rocket body
Debris
Shape & HBRBox, Unknown HBR
Radar Cross Section0.080 m², Medium (>0.1 m² and < 1m²)

Expand to show TLE details & history

TLE from 10 hours ago
0 KSM1-A
1 46912U 20081H   24361.00604694  .00015592  00000-0  83732-3 0  9996
2 46912  36.8962 111.9067 0005214 133.6799 226.4379 15.14262070227263
Epoch: 2024-12-26T00:08Z
Definitive object data (Epoch: 2024-12-26T00:08:42.455Z)
Latitude-0.00002°
Longitude14.73814°
Altitude524.811 km
Speed7.602 km/s
True Right ascension07h 27m 37s
True Declination0° 00' 00"
Sunlit
Object was in full shadow at TLE epoch
Visualization TLE readout
Latitude32.81093°
Longitude70.93042°
Altitude522.524 km
Speed7.608 km/s
Apparent Right ascension15h 01m 52s
Apparent Declination-7° 06' 06"
Sunlit
Object is in full shadow
Visualization observer readout
Local Sidereal Time09:16:23
Azimuth97.769° ESE
Elevation-1.786°
Doppler factor1
Orbital elements
Apogee altitude529.756 km
Perigee altitude522.556 km
Semi-major axis6,904.293 km
Eccentricity0.0005214
Inclination36.8962°
RAAN111.9067°
Arg. of periapsis133.6799°
True anomaly226.39462°
Mean anomaly226.4379°
Eccentric anomaly226.41626°
Mean motion3.78324 °/min
BSTAR0.00083732
Orbital period95.16 mins
Loading maneuver chart data...
Loading historical data...
Loading historical data...
Loading historical data...
Loading historical data...
Loading historical data...
Loading historical data...
Loading historical data...

KSM1-A Visibility forecast

Observer location: undefined°, undefined

Span
Click to sort rows by Start time (UTC) header in descending order
Start Az.
Max El. time (UTC)
Max El. Az.
Max El.
End time (UTC)
End Az.
5 mins2024-12-26 11:27:17.423Z207.704° SW2024-12-26 11:30:17.423Z148.964° SSE22.61°2024-12-26 11:32:17.423Z111.468° ESE
6 mins2024-12-26 13:07:17.423Z242.773° WSW2024-12-26 13:10:17.423Z149.002° SSE36.706°2024-12-26 13:13:17.423Z98.963° ESE
6 mins2024-12-26 14:47:17.423Z257.327° W2024-12-26 14:50:17.423Z171.453° S35.742°2024-12-26 14:53:17.423Z117.145° SE
4 mins2024-12-26 16:28:17.423Z235.183° WSW2024-12-26 16:30:17.423Z193.815° SSW19.451°2024-12-26 16:32:17.423Z160.195° S
|